Location: Boiro
(42.6475°N, 8.8834°W)
Time: 23:28:01
(UTC+01:00)

A-11 Canister half - Pass Details

Date: 01 December 2021
Orbit: 1516 x 1684 km, 47.2° (Epoch: 18 January)

Event Time Altitude Azimuth Distance (km) Brightness Sun altitude
Rises 17:39:36 0° 290° (WNW) 4,936 12.2 2.8°
Reaches altitude 10° 17:44:12 10° 273° (W) 3,948 12.2 2.1°
Maximum altitude 17:50:07 17° 236° (WSW) 3,372 12.7 1.2°
Drops below altitude 10° 17:56:01 10° 200° (SSW) 3,914 12.0 0.3°
Sets 18:00:37 0° 182° (S) 4,875 12.1 -0.5°
